This is the latest recevied weather packets stored in our database for station/object WZ9ZZZ-1. If no packets are shown the sender has not sent any weather packets the latest 10 day(s).
| Time | Temp. | Humidity | Pressure | Rain* | Wind** | Luminosity | Snow |
|---|---|---|---|---|---|---|---|
| 1777423390 | 26.67° C | 85% | 1016 hPa | 0 mm | - | 3 W/m² | - |
| 1777423084 | 26.67° C | 85% | 1016.2 hPa | 0 mm | - | 3 W/m² | - |
| 1777422780 | 26.67° C | 84% | 1016.2 hPa | 0 mm | - | 3 W/m² | - |
| 1777422476 | 26.67° C | 84% | 1015.9 hPa | 0 mm | - | 9 W/m² | - |
| 1777422171 | 26.67° C | 84% | 1016 hPa | 0 mm | - | 8 W/m² | - |
| 1777421871 | 26.67° C | 84% | 1016.4 hPa | 0 mm | - | 13 W/m² | - |
| 1777421566 | 26.67° C | 84% | 1016.1 hPa | 0 mm | - | 17 W/m² | - |
| 1777421262 | 26.67° C | 84% | 1015.9 hPa | 0 mm | - | 19 W/m² | - |
| 1777420958 | 26.67° C | 84% | 1015.8 hPa | 0 mm | - | 16 W/m² | - |
| 1777420655 | 26.67° C | 84% | 1015.9 hPa | 0 mm | - | 17 W/m² | - |
| 1777420351 | 26.67° C | 84% | 1015.6 hPa | 0 mm | - | 18 W/m² | - |
| 1777420047 | 27.22° C | 84% | 1015.8 hPa | 0 mm | - | 26 W/m² | - |
| 1777419744 | 27.22° C | 84% | 1015.9 hPa | 0 mm | - | 28 W/m² | - |
| 1777419441 | 27.22° C | 84% | 1015.7 hPa | 0 mm | - | 42 W/m² | - |
| 1777419140 | 27.22° C | 84% | 1015.7 hPa | 0 mm | - | 44 W/m² | - |
| 1777418835 | 27.22° C | 84% | 1015.6 hPa | 0 mm | - | 45 W/m² | - |
| 1777418532 | 27.22° C | 83% | 1015.5 hPa | 0 mm | - | 48 W/m² | - |
| 1777418228 | 27.22° C | 83% | 1015.5 hPa | 0 mm | - | 58 W/m² | - |
| 1777417924 | 27.78° C | 83% | 1015.4 hPa | 0 mm | - | 56 W/m² | - |
| 1777417621 | 27.78° C | 82% | 1015.4 hPa | 0 mm | - | 57 W/m² | - |
| 1777417315 | 27.78° C | 82% | 1015.6 hPa | 0 mm | - | 115 W/m² | - |
| 1777417012 | 27.78° C | 82% | 1015.3 hPa | 0 mm | - | 82 W/m² | - |
| 1777416707 | 27.78° C | 82% | 1015.3 hPa | 0 mm | - | 148 W/m² | - |
| 1777416404 | 27.78° C | 81% | 1015.5 hPa | 0 mm | - | 141 W/m² | - |
| 1777416098 | 28.89° C | 80% | 1015.8 hPa | 0 mm | - | 105 W/m² | - |
* Rain latest hour (hover to see other rain measurements)
** Current wind speed in m/s (hover to see current wind gust speed)